User: anonymous   Login
Location: Anuling
(14.1239°N, 120.8922°E)
Time: 05:52:33
(UTC+00:00)
Language:

ARIANE 5 R/B - Orbit

View from above orbital plane
View from above orbital plane
View from above satellite
View from above satellite

Ground track
Ground track

The orbit is defined by the following mean orbital elements,

1 27387U          26074.94004741 +.00000000 +00000-0 +46065-4 0 00003
2 27387  98.8154  90.8990 0032805  42.8806 317.4928 14.36773111    03
Epoch (UTC): 15 March 2026 22:33:40
Eccentricity: 0.0032805
inclination: 98.8154°
perigee height: 746 km
apogee height: 793 km
right ascension of ascending node: 90.8990°
argument of perigee: 42.8806°
revolutions per day: 14.36773111
mean anomaly at epoch: 317.4928°

The dashed part of the orbit path shows where the satellite is in the earth's shadow,  

DLR